Regional Weather Roundup
Issued by NWS

Home | Current Version | Previous Version | Text Only | Print | Product List | Glossary Off
Versions: 1 2 3 4 5 6 7 8 9 10 11 12 13 14 15 16 17 18 19 20 21 22 23 24 25 26 27 28 29 30 31 32 33 34 35 36 37 38 39 40 41 42 43 44 45 46 47 48 49 50

000
ASUS43 KDTX 190501
RWRMI
MICHIGAN HOURLY REGIONAL WEATHER ROUNDUP
NATIONAL WEATHER SERVICE DETROIT/PONTIAC MI
100 AM EDT TUE SEP 19 2017

NOTE: "FAIR" INDICATES FEW OR NO CLOUDS BELOW 12,000 FEET WITH NO
SIGNIFICANT WEATHER AND/OR OBSTRUCTION TO VISIBILITY.

MIZ047>049-052>055-059>063-066>070-074>076-081>083-190600-
SOUTHEAST LOWER MICHIGAN

CITY           SKY/WX    TMP DP  RH WIND       PRES   REMARKS
ADRIAN         CLOUDY    66  61  84 E6        30.04F
ALMA           PTCLDY    54  51  90 NE3       30.05F
ANN ARBOR      CLOUDY    64  56  75 NE6       30.04F
BAD AXE        CLOUDY    49  47  95 CALM      30.08R
CARO           CLEAR     52  51  95 CALM      30.05F
DETROIT CITY   CLOUDY    64  59  83 CALM      30.05S
DETROIT        CLOUDY    66  59  78 NE6       30.04F
FLINT          CLEAR     57  54  89 E3        30.06S
GROSSE ILE     CLOUDY    64  62  92 NE6       30.03F
HILLSDALE      CLOUDY    64  63  94 E6        30.03S FOG
HOWELL         PTCLDY    58  57  97 E3        30.05S

CITY           SKY/WX    TMP DP  RH WIND       PRES   REMARKS
JACKSON        CLOUDY    65  61  87 NE8       30.04F
LAMBERTVILLE   CLOUDY    66  63  90 CALM      30.02F FOG
LANSING        MOCLDY    60  56  86 E6        30.05F
LAPEER         MOCLDY    53  52  96 CALM      30.06F
MASON          CLOUDY    63  61  93 CALM      30.05S FOG
MONROE         CLOUDY    65  62  90 NE3       30.03F
MT. CLEMENS    CLOUDY    62  62 100 N5        30.03S
PONTIAC        CLOUDY    60  55  83 NE3       30.05S
PORT HOPE        N/A     55  52  89 CALM      30.06S
PORT HURON     CLOUDY    61  59  94 CALM      30.05S
TRI CITIES     CLOUDY    57  55  93 E6        30.06F
MIDLAND        FAIR      58  54  88 NE5       30.05F
TROY           CLOUDY    63  58  84 N3        30.07S
SAGINAW HB     CLOUDY    54  52  94 CALM      30.05F
$$
MIZ043>046-050>051-056>058-064>065-071>073-077>080-190600-
SOUTHWEST LOWER MICHIGAN

CITY           SKY/WX    TMP DP  RH WIND       PRES   REMARKS
BATTLE CREEK   MOCLDY    65  62  90 E9        30.02F
BENTON HARBOR  PTCLDY    60  57  89 CALM      29.98F
BIG RAPIDS     PTCLDY    56  52  86 CALM      30.05S
COLDWATER      CLOUDY    67  67 100 E9        30.02F FOG
FREMONT        FAIR      60  53  78 CALM      30.02F
HOLLAND        PTCLDY    60  55  83 E6        30.01F
GRAND RAPIDS   PTCLDY    61  56  83 E8        30.02F
IONIA          FAIR      60  55  85 E6        30.03S
KALAMAZOO      MOCLDY    62  56  80 E3        30.01F
LUDINGTON      PTCLDY    51  50  95 E7        30.02F
MARSHALL       CLOUDY    65  64  98 CALM      30.02F FOG
MOUNT PLEASANT PTCLDY    58  57  96 CALM      30.05F
MUSKEGON       CLEAR     61  54  77 CALM      30.02S
SOUTH HAVEN    PTCLDY    61  58  91 E5        29.99F
$$
MIZ016>042-190600-
NORTHERN LOWER MICHIGAN

CITY           SKY/WX    TMP DP  RH WIND       PRES   REMARKS
ALPENA         PTCLDY    50  48  93 CALM      30.08F
BEAVER ISLAND  PTCLDY    51  50  96 NE3       30.07F
BELLAIRE       MOCLDY    48  47  93 CALM      30.07F
CADILLAC       CLOUDY    57  53  86 E5        30.06S
CHARLEVOIX     CLOUDY    56  53  89 CALM      30.10S
FRANKFORT      PTCLDY    60  51  73 E6        30.04S
GAYLORD        PTCLDY    50  45  83 CALM      30.09S
GRAYLING       PTCLDY    45  43  93 CALM      30.09S
HARBOR SPRINGS PTCLDY    52  50  94 CALM      30.07F
HOUGHTON LAKE  CLOUDY    52  51  97 E6        30.07F
MANISTEE       PTCLDY    54  51  90 E6        30.03S
OSCODA         CLEAR     49  48  96 W8        30.07S
PELLSTON       CLOUDY    47  45  93 CALM      30.09S
ROGERS CITY    CLEAR     49  47  94 W3        30.09S
TRAVERSE CITY  PTCLDY    54  49  83 CALM      30.04F
$$
MIZ007>008-015-190600-
EASTERN UPPER MICHIGAN

CITY           SKY/WX    TMP DP  RH WIND       PRES   REMARKS
KINROSS        MOCLDY    54  49  83 CALM      30.09F
MACKINAC ISLAN PTCLDY    56  52  84 NE6       30.08S
NEWBERRY       CLOUDY    52  51  97 N5        30.10S
S. S. MARIE    MOCLDY    54  49  83 CALM      30.08S
MUNISING         N/A     58  51  78 CALM      30.07F
$$
MIZ004>006-011>014-085-190600-
CENTRAL UPPER MICHIGAN

CITY           SKY/WX    TMP DP  RH WIND       PRES   REMARKS
MANISTIQUE     CLOUDY    53  48  81 NE6       30.06F
ESCANABA       CLOUDY    58  54  86 CALM      30.06R
MENOMINEE      CLOUDY    62  53  72 E5        30.06R
SAWYER-GWINN   CLOUDY    54  52  94 W5        30.09R
$$
MIZ001>003-009>011-084-190600-
WESTERN UPPER MICHIGAN

CITY           SKY/WX    TMP DP  RH WIND       PRES   REMARKS
IRON MOUNTAIN  CLOUDY    57  52  83 CALM      30.08R
HOUGHTON       CLOUDY    56  53  90 E6        30.08S
COPPER HARBOR    N/A     57  54  89 SW6       30.07F
IRONWOOD       CLOUDY    57  53  86 SE8       30.04F
$$

ABBREVIATIONS USED IN REMARKS
   TC - TEMPERATURE IN CELSIUS
  WCI - WIND CHILL INDEX
   HX - HEAT INDEX
  VSB - VISIBILITY





USA.gov is the U.S. government's official web portal to all federal, state and local government web resources and services.